"Timestamp","TZ","WindDir_Mean (deg)","WindSpd_Mean (km/h)","WindSpd_Min (km/h)","WindSpd_Max (km/h)","Temp_Mean (deg)","RH_Mean (%)","MSLP_Mean (hPa)","Rain_Acc (mm)","Rain_Intensity (mm/h)","Hail_Acc (hits/cm2)","Hail_Intensity (hits/cm2hr)","Solar_Mean (W/m2)"
2021/01/09 00:00:00.004,n,11,2.52,1.8,3.96,19.4,83.6,1016.82,0,0,0,0,0.033073
2021/01/09 00:01:00.001,n,274,1.08,0.72,2.52,19.4,83.6,1016.82,0,0,0,0,0.032196
2021/01/09 00:02:00.000,n,225,4.32,3.6,5.04,19.4,83.4,1016.82,0,0,0,0,0.030479
2021/01/09 00:03:00.000,n,257,5.04,4.68,5.4,19.3,83.7,1016.82,0,0,0,0,0.033951
2021/01/09 00:04:00.000,n,215,3.6,2.52,4.32,19.4,83.6,1016.82,0,0,0,0,0.034828
2021/01/09 00:05:00.005,n,138,3.96,2.88,4.68,19.3,83.3,1016.82,0,0,0,0,0.028725
2021/01/09 00:06:00.002,n,206,3.6,3.24,4.32,19.3,83.4,1016.82,0,0,0,0,0.034828
2021/01/09 00:07:00.000,n,273,6.12,5.04,7.2,19.3,83.5,1016.72,0,0,0,0,0.035706
2021/01/09 00:08:00.013,n,182,3.96,2.52,5.4,19.3,83.4,1016.72,0,0,0,0,0.033951
2021/01/09 00:09:00.010,n,170,7.56,6.12,9,19.2,83,1016.72,0,0,0,0,0.028725
2021/01/09 00:10:00.000,n,132,2.16,1.8,3.24,19.2,83.3,1016.72,0,0,0,0,0.029602
2021/01/09 00:11:00.003,n,236,2.16,1.44,2.88,19.2,83.4,1016.72,0,0,0,0,0.0383
2021/01/09 00:12:00.000,n,134,2.16,1.08,2.88,19.2,83.7,1016.72,0,0,0,0,0.030479
2021/01/09 00:13:00.007,n,96,1.08,0.36,1.8,19.2,83.4,1016.72,0,0,0,0,0.032196
2021/01/09 00:14:00.000,n,242,1.08,0.72,2.16,19.2,83.4,1016.72,0.01,0.2,0,0,0.033951
2021/01/09 00:15:00.001,n,268,2.52,2.16,2.52,19.2,83.5,1016.72,0.04,1.6,0,0,0.034828
2021/01/09 00:16:00.007,n,218,1.44,0.72,1.8,19.2,83.8,1016.62,0.04,0,0,0,0.030479
2021/01/09 00:17:00.013,n,253,3.6,2.88,4.32,19.2,83.2,1016.62,0.04,0,0,0,0.035706
2021/01/09 00:18:00.002,n,2,2.52,1.8,4.32,19.2,83.2,1016.62,0.04,0.1,0,0,0.034828
2021/01/09 00:19:00.000,n,203,2.16,1.44,2.52,19.2,83.2,1016.62,0.04,0.1,0,0,0.033951
2021/01/09 00:20:00.000,n,307,3.24,1.08,3.96,19.2,83.5,1016.52,0.04,0.1,0,0,0.034828
2021/01/09 00:21:00.000,n,249,5.04,4.32,5.76,19.2,83.4,1016.52,0.05,0.3,0,0,0.037422
2021/01/09 00:22:00.000,n,248,1.8,0.72,2.52,19.2,83.5,1016.52,0.05,0,0,0,0.034828
2021/01/09 00:23:00.000,n,270,1.8,1.44,2.16,19.2,83.6,1016.52,0.05,0,0,0,0.032196
2021/01/09 00:24:00.008,n,239,1.44,1.08,1.8,19.2,83.4,1016.52,0.05,0,0,0,0.031357
2021/01/09 00:25:00.006,n,231,3.24,3.24,3.6,19.2,83.3,1016.52,0.05,0,0,0,0.033951
2021/01/09 00:26:00.003,n,270,4.32,3.24,5.4,19.2,83.2,1016.42,0.05,0,0,0,0.033073
2021/01/09 00:27:00.000,n,239,3.96,3.96,4.32,19.1,83.1,1016.42,0.05,0,0,0,0.033073
2021/01/09 00:28:00.000,n,276,1.8,1.08,1.8,19.1,83.3,1016.42,0.05,0,0,0,0.033073
2021/01/09 00:29:00.000,n,286,5.4,3.96,6.48,19.1,83.5,1016.42,0.05,0,0,0,0.037422
2021/01/09 00:30:00.000,n,273,4.68,4.32,5.4,19.1,83.1,1016.42,0.05,0,0,0,0.033951
2021/01/09 00:31:00.007,n,271,6.84,5.04,8.28,19.1,83,1016.42,0.05,0,0,0,0.035706
2021/01/09 00:32:00.004,n,267,2.16,1.8,2.88,19,83.1,1016.42,0.05,0,0,0,0.033073
2021/01/09 00:33:00.001,n,265,3.96,2.52,4.68,19,83.3,1016.42,0.05,0,0,0,0.033951
2021/01/09 00:34:00.000,n,278,4.32,3.6,4.68,19,83.3,1016.42,0.05,0,0,0,0.031357
2021/01/09 00:35:00.000,n,288,4.68,2.88,6.48,19,83.3,1016.42,0.05,0,0,0,0.033951
2021/01/09 00:36:00.013,n,264,6.12,5.4,6.48,19,83.3,1016.32,0.05,0,0,0,0.033073
2021/01/09 00:37:00.000,n,294,5.04,4.68,5.4,19,83.1,1016.32,0.05,0,0,0,0.034828
2021/01/09 00:38:00.000,n,256,3.6,3.24,4.32,19,83.3,1016.32,0.05,0,0,0,0.032196
2021/01/09 00:39:00.004,n,280,3.6,2.88,3.96,19.1,83.5,1016.32,0.05,0,0,0,0.032196
2021/01/09 00:40:00.001,n,253,0.72,0.36,1.08,19.1,83.7,1016.32,0.05,0,0,0,0.032196
2021/01/09 00:41:00.000,n,271,4.32,3.96,4.68,19.1,84,1016.22,0.05,0,0,0,0.028725
2021/01/09 00:42:00.000,n,290,2.88,2.52,3.6,19.2,83.5,1016.22,0.05,0,0,0,0.033951
2021/01/09 00:43:00.009,n,275,5.04,4.32,5.76,19.1,83.6,1016.32,0.05,0,0,0,0.028725
2021/01/09 00:44:00.005,n,266,5.76,5.4,6.12,19.2,83.4,1016.32,0.05,0,0,0,0.031357
2021/01/09 00:45:00.002,n,267,4.32,3.6,4.68,19.1,83.1,1016.32,0.05,0,0,0,0.026131
2021/01/09 00:46:00.000,n,256,2.52,2.16,3.24,19.1,83.2,1016.32,0.05,0,0,0,0.030479
2021/01/09 00:47:00.000,n,290,4.32,3.96,5.04,19.1,83.6,1016.32,0.05,0,0,0,0.033073
2021/01/09 00:48:00.000,n,252,3.6,2.88,4.32,19.1,83.2,1016.32,0.05,0,0,0,0.031357
2021/01/09 00:49:00.000,n,310,2.52,0.72,2.88,19.1,83.5,1016.32,0.05,0,0,0,0.030479
2021/01/09 00:50:00.008,n,271,5.4,4.68,6.12,19.1,83.6,1016.32,0.05,0,0,0,0.030479
2021/01/09 00:51:00.004,n,261,5.4,4.68,5.76,19.1,83.1,1016.32,0.05,0,0,0,0.02697
2021/01/09 00:52:00.001,n,257,3.24,2.52,3.96,19.1,83,1016.32,0.05,0,0,0,0.029602
2021/01/09 00:53:00.000,n,258,2.52,2.16,2.88,19.1,83.1,1016.22,0.05,0,0,0,0.029602
2021/01/09 00:54:00.012,n,231,4.68,3.96,5.04,19.1,83.1,1016.22,0.05,0,0,0,0.033951
2021/01/09 00:55:00.000,n,279,1.08,0.36,1.44,19.1,83.3,1016.22,0.05,0,0,0,0.030479
2021/01/09 00:56:00.000,n,227,0.72,0,1.8,19.1,83.2,1016.22,0.05,0,0,0,0.030479
2021/01/09 00:57:00.006,n,232,2.88,2.52,3.6,19.1,83.2,1016.22,0.05,0,0,0,0.032196
2021/01/09 00:58:00.002,n,214,1.08,0.72,2.52,19.1,83.2,1016.22,0.05,0,0,0,0.031357
2021/01/09 00:59:00.000,n,262,4.32,2.52,5.4,19.1,83.3,1016.12,0.05,0,0,0,0.032196
2021/01/09 01:00:00.000,n,246,2.16,1.8,2.16,19.1,83.1,1016.12,0.05,0,0,0,0.030479
2021/01/09 01:01:00.010,n,248,3.6,3.24,4.32,19.1,83.1,1016.12,0.05,0,0,0,0.028725
2021/01/09 01:02:00.007,n,241,3.96,3.6,4.32,19.1,83,1016.22,0.05,0,0,0,0.032196
2021/01/09 01:03:00.005,n,263,4.32,3.6,5.04,19.1,82.8,1016.22,0.05,0,0,0,0.033951
2021/01/09 01:04:00.000,n,239,5.4,4.68,5.4,19,82.8,1016.22,0.05,0,0,0,0.033951
2021/01/09 01:05:00.000,n,244,5.04,4.32,6.48,19,82.6,1016.22,0.05,0,0,0,0.030479
2021/01/09 01:06:00.000,n,280,5.4,5.04,5.76,19,83.2,1016.22,0.05,0,0,0,0.031357
2021/01/09 01:07:00.000,n,271,5.4,4.68,6.12,19.1,83,1016.22,0.05,0,0,0,0.031357
2021/01/09 01:08:00.006,n,266,2.16,1.44,2.88,19.1,83.6,1016.12,0.05,0,0,0,0.034828
2021/01/09 01:09:00.003,n,263,5.04,4.68,5.4,19.2,83.2,1016.12,0.05,0,0,0,0.031357
2021/01/09 01:10:00.000,n,125,1.44,0.72,2.52,19.2,82.6,1016.12,0.05,0,0,0,0.033073
2021/01/09 01:11:00.014,n,301,3.24,3.24,3.6,19.2,83.2,1016.12,0.05,0,0,0,0.028725
2021/01/09 01:12:00.010,n,176,3.24,2.16,3.96,19.2,82.8,1016.12,0.05,0,0,0,0.032196
2021/01/09 01:13:00.000,n,124,1.08,0.72,2.16,19.2,82.9,1016.12,0.05,0,0,0,0.030479
2021/01/09 01:14:00.000,n,224,2.16,1.8,2.52,19.2,83.3,1016.12,0.05,0,0,0,0.02697
2021/01/09 01:15:00.002,n,281,2.16,0.72,3.6,19.2,83.3,1016.12,0.05,0,0,0,0.030479
2021/01/09 01:16:00.000,n,304,1.8,1.08,2.16,19.2,83.2,1016.02,0.05,0,0,0,0.02697
2021/01/09 01:17:00.000,n,208,2.88,2.16,2.88,19.3,83.1,1016.02,0.05,0,0,0,0.027847
2021/01/09 01:18:00.010,n,188,2.16,2.16,2.16,19.3,82.9,1016.02,0.05,0,0,0,0.034828
2021/01/09 01:19:00.006,n,84,6.12,4.68,7.2,19.2,82.5,1016.02,0.05,0,0,0,0.033073
2021/01/09 01:20:00.003,n,332,5.04,3.96,5.76,19.2,82.9,1016.02,0.05,0,0,0,0.031357
2021/01/09 01:21:00.000,n,253,2.88,2.16,3.96,19.2,82.7,1016.02,0.05,0,0,0,0.033073
2021/01/09 01:22:00.000,n,244,1.8,0.72,3.24,19.2,82.8,1015.92,0.05,0,0,0,0.036545
2021/01/09 01:23:00.000,n,192,1.8,1.44,2.16,19.2,82.6,1015.92,0.05,0,0,0,0.033951
2021/01/09 01:24:00.000,n,209,2.16,0.72,3.24,19.2,82.4,1015.92,0.05,0,0,0,0.037422
2021/01/09 01:25:00.006,n,192,1.08,0.36,2.52,19.2,82.5,1015.92,0.05,0,0,0,0.034828
2021/01/09 01:26:00.003,n,282,4.32,3.6,4.68,19.2,82.8,1015.92,0.05,0,0,0,0.033073
2021/01/09 01:27:00.000,n,170,2.52,1.44,3.6,19.2,82.2,1016.02,0.05,0,0,0,0.034828
2021/01/09 01:28:00.000,n,278,2.52,2.16,2.88,19.1,82.6,1015.92,0.05,0,0,0,0.033073
2021/01/09 01:29:00.011,n,269,5.4,2.88,8.28,19.1,82,1015.92,0.05,0,0,0,0.034828
2021/01/09 01:30:00.007,n,268,2.16,1.44,2.52,19.1,82,1016.02,0.05,0,0,0,0.028725
2021/01/09 01:31:00.000,n,212,2.16,0.72,4.68,19.1,82.2,1016.02,0.05,0,0,0,0.032196
2021/01/09 01:32:00.002,n,157,0.72,0.72,1.08,19.1,82.2,1016.02,0.05,0,0,0,0.033073
2021/01/09 01:33:00.000,n,235,3.6,2.16,4.32,19.1,81.8,1016.02,0.05,0,0,0,0.033073
2021/01/09 01:34:00.000,n,149,2.88,2.88,3.24,19.1,82,1016.02,0.05,0,0,0,0.031357
2021/01/09 01:35:00.000,n,230,2.16,1.08,2.88,19.1,82.2,1015.92,0.05,0,0,0,0.033073
2021/01/09 01:36:00.007,n,274,3.24,2.52,3.6,19.1,82.4,1015.92,0.05,0,0,0,0.033073
2021/01/09 01:37:00.003,n,45,2.16,1.8,2.52,19.1,82.6,1015.92,0.05,0,0,0,0.033073
2021/01/09 01:38:00.001,n,179,0.72,0.36,1.8,19.2,82.6,1015.92,0.05,0,0,0,0.033951
2021/01/09 01:39:00.015,n,192,3.6,2.52,5.04,19.2,82.2,1016.02,0.05,0,0,0,0.034828
2021/01/09 01:40:00.000,n,200,2.52,1.08,3.24,19.1,81.7,1015.92,0.05,0,0,0,0.030479
2021/01/09 01:41:00.000,n,297,0.36,0,0.72,19.1,82.2,1015.92,0.05,0,0,0,0.033073
2021/01/09 01:42:00.000,n,187,2.88,0.72,3.96,19.1,82.1,1015.92,0.05,0,0,0,0.032196
2021/01/09 01:43:00.003,n,186,4.32,3.96,5.04,19.1,81.9,1015.92,0.05,0,0,0,0.028725
2021/01/09 01:44:00.001,n,184,1.08,0.72,1.44,19.1,81.8,1015.92,0.05,0,0,0,0.033073
2021/01/09 01:45:00.000,n,238,2.16,1.8,2.52,19.1,82,1015.92,0.05,0,0,0,0.028725
2021/01/09 01:46:00.012,n,262,6.12,5.4,7.2,19.1,81.8,1015.92,0.05,0,0,0,0.029602
2021/01/09 01:47:00.009,n,202,2.88,1.8,4.32,19,81.6,1015.92,0.05,0,0,0,0.033073
2021/01/09 01:48:00.006,n,166,1.08,0.36,2.16,19,81.8,1015.92,0.05,0,0,0,0.035706
2021/01/09 01:49:00.000,n,179,5.76,2.52,6.84,19,81.7,1015.92,0.05,0,0,0,0.036545
2021/01/09 01:50:00.000,n,190,0.72,0.72,1.08,19,81.7,1015.92,0.05,0,0,0,0.036545
2021/01/09 01:51:00.000,n,302,3.24,0.72,4.32,19,81.7,1015.92,0.05,0,0,0,0.035706
2021/01/09 01:52:00.000,n,182,3.96,2.16,5.4,19,81.5,1015.82,0.05,0,0,0,0.035706
2021/01/09 01:53:00.009,n,181,1.44,0.72,2.52,19,81.7,1015.82,0.05,0,0,0,0.036545
2021/01/09 01:54:00.005,n,267,5.04,4.68,5.04,19,81.8,1015.82,0.05,0,0,0,0.034828
2021/01/09 01:55:00.001,n,291,0.72,0.36,1.08,19,81.8,1015.82,0.05,0,0,0,0.034828
2021/01/09 01:56:00.000,n,243,1.08,0.36,1.8,19.1,82.1,1015.82,0.05,0,0,0,0.034828
2021/01/09 01:57:00.012,n,285,3.6,2.16,4.68,19.1,82,1015.82,0.05,0,0,0,0.035706
2021/01/09 01:58:00.000,n,107,3.24,2.88,3.96,19.1,82.2,1015.92,0.05,0,0,0,0.029602
2021/01/09 01:59:00.000,n,249,7.2,3.6,8.28,19.1,81.8,1015.92,0.05,0,0,0,0.033073
2021/01/09 02:00:00.003,n,193,2.16,1.44,2.88,19.1,81.7,1015.92,0.05,0,0,0,0.033951
2021/01/09 02:01:00.000,n,244,1.8,0.72,2.52,19.1,81.6,1015.92,0.05,0,0,0,0.035706
2021/01/09 02:02:00.000,n,317,3.24,2.16,3.96,19.1,82,1015.92,0.05,0,0,0,0.036545
2021/01/09 02:03:00.011,n,250,1.8,0.72,2.16,19.1,81.5,1015.92,0.05,0,0,0,0.034828
2021/01/09 02:04:00.008,n,160,1.44,1.08,1.8,19.1,81.3,1015.92,0.05,0,0,0,0.033951
2021/01/09 02:05:00.005,n,225,1.08,0.72,1.44,19.1,81.3,1015.92,0.05,0,0,0,0.033073
2021/01/09 02:06:00.003,n,251,1.8,1.08,2.16,19.1,81.7,1015.92,0.05,0,0,0,0.033951
2021/01/09 02:07:00.001,n,269,3.24,1.8,5.04,19.1,81.8,1015.92,0.05,0,0,0,0.034828
2021/01/09 02:08:00.000,n,273,5.4,3.6,6.12,19.1,81.5,1016.02,0.05,0,0,0,0.033951
2021/01/09 02:09:00.000,n,267,1.8,1.44,2.52,19.1,81.4,1016.02,0.05,0,0,0,0.032196
2021/01/09 02:10:00.000,n,267,5.04,5.04,5.04,19.1,81.2,1016.02,0.05,0,0,0,0.037422
2021/01/09 02:11:00.008,n,328,1.8,1.08,2.52,19.1,81.9,1016.12,0.07,1,0,0,0.033073
2021/01/09 02:12:00.006,n,242,5.4,4.68,6.48,19.1,81.5,1016.12,0.08,0.6,0,0,0.033951
2021/01/09 02:13:00.003,n,257,7.2,6.48,7.92,19.1,80.7,1016.12,0.08,0.1,0,0,0.033951
2021/01/09 02:14:00.002,n,272,5.4,5.04,5.76,19,81,1016.12,0.08,0.1,0,0,0.030479
2021/01/09 02:15:00.015,n,260,3.24,3.24,3.24,19,81.1,1016.12,0.08,0.1,0,0,0.034828
2021/01/09 02:16:00.000,n,265,4.68,3.6,5.4,19,81.1,1016.12,0.09,0.1,0,0,0.030479
2021/01/09 02:17:00.000,n,255,3.96,2.16,5.4,19,80.9,1016.02,0.09,0.2,0,0,0.033073
2021/01/09 02:18:00.000,n,254,1.8,1.8,2.16,19,81.1,1016.02,0.09,0,0,0,0.033951
2021/01/09 02:19:00.006,n,254,1.8,1.08,2.52,19,81.3,1016.02,0.09,0,0,0,0.035706
2021/01/09 02:20:00.003,n,297,3.96,3.24,5.04,19,81.6,1016.02,0.09,0,0,0,0.034828
2021/01/09 02:21:00.000,n,267,7.2,6.48,8.28,19,81,1016.02,0.09,0,0,0,0.031357
2021/01/09 02:22:00.000,n,262,6.12,2.88,8.28,19,80.8,1016.02,0.09,0,0,0,0.034828
2021/01/09 02:23:00.011,n,247,8.64,7.56,11.16,19,80.7,1016.02,0.09,0,0,0,0.037422
2021/01/09 02:24:00.008,n,216,1.44,0.72,2.16,19,81.3,1016.12,0.09,0,0,0,0.033951
2021/01/09 02:25:00.000,n,156,1.08,0,1.44,19,81.4,1016.02,0.09,0,0,0,0.035706
2021/01/09 02:26:00.003,n,224,2.52,2.16,2.52,19,81.4,1016.02,0.09,0,0,0,0.027847
2021/01/09 02:27:00.000,n,252,4.32,3.24,5.04,19,81.3,1016.02,0.09,0,0,0,0.028725
2021/01/09 02:28:00.000,n,246,1.8,1.44,2.16,19,81.1,1015.92,0.09,0,0,0,0.032196
2021/01/09 02:29:00.000,n,237,2.52,2.16,2.52,18.9,81.2,1015.92,0.09,0,0,0,0.033073
2021/01/09 02:30:00.007,n,307,2.16,1.08,3.24,19,81.3,1016.02,0.09,0,0,0,0.035706
2021/01/09 02:31:00.004,n,256,1.44,0.72,1.8,19,81.4,1016.02,0.09,0,0,0,0.034828
2021/01/09 02:32:00.001,n,199,5.04,4.32,5.76,19,81.3,1015.92,0.09,0,0,0,0.028725
2021/01/09 02:33:00.015,n,250,2.88,2.52,3.6,19,81.8,1015.92,0.09,0,0,0,0.029602
2021/01/09 02:34:00.000,n,192,3.96,2.88,5.04,19,81.6,1015.92,0.09,0,0,0,0.031357
2021/01/09 02:35:00.000,n,148,3.96,3.6,5.04,19,81.4,1015.92,0.09,0,0,0,0.031357
2021/01/09 02:36:00.000,n,158,5.4,4.68,5.4,19,81.1,1015.92,0.09,0,0,0,0.030479
2021/01/09 02:37:00.003,n,160,7.56,6.48,8.64,19,81.1,1015.92,0.09,0,0,0,0.027847
2021/01/09 02:38:00.000,n,162,8.28,7.92,8.64,18.9,81.1,1015.92,0.09,0,0,0,0.031357
2021/01/09 02:39:00.000,n,178,6.84,6.48,7.56,18.9,81.3,1015.92,0.09,0,0,0,0.028725
2021/01/09 02:40:00.012,n,258,1.44,1.08,2.16,18.9,81.3,1015.92,0.09,0,0,0,0.027847
2021/01/09 02:41:00.008,n,205,1.08,0.36,1.08,19,81.4,1015.92,0.09,0,0,0,0.031357
2021/01/09 02:42:00.007,n,195,4.32,3.24,5.04,19,81.5,1015.92,0.09,0,0,0,0.027847
2021/01/09 02:43:00.000,n,181,6.84,6.12,7.56,19,81.1,1015.92,0.09,0,0,0,0.023499
2021/01/09 02:44:00.002,n,161,8.64,7.2,10.08,18.9,81.1,1015.92,0.09,0,0,0,0.02697
2021/01/09 02:45:00.000,n,180,10.8,9.36,11.52,18.9,81.1,1015.92,0.09,0,0,0,0.028725
2021/01/09 02:46:00.000,n,183,5.04,3.24,6.12,18.9,81.1,1015.92,0.09,0,0,0,0.028725
2021/01/09 02:47:00.000,n,312,5.4,4.32,7.2,18.9,81.5,1015.92,0.09,0,0,0,0.026131
2021/01/09 02:48:00.007,n,275,1.44,1.08,1.44,19,81.4,1016.02,0.09,0,0,0,0.026131
2021/01/09 02:49:00.003,n,227,1.8,1.44,2.16,19,81.5,1016.02,0.09,0,0,0,0.027847
2021/01/09 02:50:00.000,n,239,5.04,4.68,5.4,19,81.2,1016.02,0.09,0,0,0,0.025253
2021/01/09 02:51:00.014,n,275,5.4,4.68,5.76,19,81.2,1016.02,0.09,0,0,0,0.01915
2021/01/09 02:52:00.000,n,286,5.04,3.6,5.76,19,81.7,1016.12,0.09,0,0,0,0.023499
2021/01/09 02:53:00.000,n,272,4.32,3.6,5.04,19,81,1016.12,0.09,0,0,0,0.02697
2021/01/09 02:54:00.000,n,223,1.44,0.72,1.8,19,81,1016.12,0.09,0,0,0,0.026131
2021/01/09 02:55:00.003,n,280,3.24,2.88,3.96,19,80.9,1016.12,0.09,0,0,0,0.026131
2021/01/09 02:56:00.000,n,192,2.88,2.52,3.24,18.9,80.8,1016.12,0.09,0,0,0,0.027847
2021/01/09 02:57:00.000,n,193,0.72,0,1.08,18.9,80.9,1016.12,0.09,0,0,0,0.023499
2021/01/09 02:58:00.011,n,0,1.44,1.08,2.52,19,81.7,1016.12,0.09,0,0,0,0.026131
2021/01/09 02:59:00.007,n,269,1.8,1.44,2.16,19,81.1,1016.12,0.09,0,0,0,0.024376
2021/01/09 03:00:00.005,n,144,2.52,2.52,3.24,19,80.9,1016.12,0.09,0,0,0,0.022621
2021/01/09 03:01:00.000,n,260,4.32,3.96,5.04,19,80.7,1016.12,0.09,0,0,0,0.024376
2021/01/09 03:02:00.001,n,36,3.24,2.88,3.96,19,81.3,1016.12,0.1,0.3,0,0,0.025253
2021/01/09 03:03:00.000,n,194,3.24,2.16,4.32,19,80.5,1016.12,0.1,0,0,0,0.026131
2021/01/09 03:04:00.000,n,197,3.96,3.24,3.96,19,80,1016.12,0.1,0,0,0,0.022621
2021/01/09 03:05:00.000,n,162,4.32,3.24,5.04,18.9,80.1,1016.12,0.1,0,0,0,0.026131
2021/01/09 03:06:00.008,n,182,3.24,3.24,3.6,18.9,80,1016.02,0.1,0.1,0,0,0.027847
2021/01/09 03:07:00.005,n,205,6.48,6.12,7.2,18.9,79.7,1016.02,0.1,0,0,0,0.021782
2021/01/09 03:08:00.003,n,173,4.32,3.6,5.04,18.9,79.5,1016.02,0.1,0.1,0,0,0.022621
2021/01/09 03:09:00.000,n,171,5.4,1.8,8.28,18.9,79.6,1016.02,0.1,0,0,0,0.031357
2021/01/09 03:10:00.000,n,179,6.48,5.4,6.84,18.9,79.5,1016.02,0.1,0,0,0,0.0383
2021/01/09 03:11:00.000,n,194,9.36,7.92,10.8,18.9,79.4,1015.92,0.11,0.2,0,0,0.03746
2021/01/09 03:12:00.000,n,185,6.48,5.76,7.2,18.9,79.1,1015.92,0.11,0.3,0,0,0.0383
2021/01/09 03:13:00.004,n,172,9.36,7.56,10.440002,18.9,79.1,1015.92,0.12,0.3,0,0,0.034866
2021/01/09 03:14:00.001,n,223,6.12,5.04,6.84,18.9,79.1,1015.92,0.13,0.5,0,0,0.036583
2021/01/09 03:15:00.000,n,270,1.44,1.08,1.8,18.9,79.5,1015.92,0.13,0.1,0,0,0.036583
2021/01/09 03:16:00.000,n,151,3.24,2.52,3.96,19,79.3,1015.92,0.13,0.2,0,0,0.033112
2021/01/09 03:17:00.011,n,188,4.68,4.32,5.04,19,79.3,1015.92,0.13,0,0,0,0.033951
2021/01/09 03:18:00.008,n,155,10.440002,9.36,11.52,18.9,78.9,1015.92,0.13,0,0,0,0.033951
2021/01/09 03:19:00.000,n,161,4.32,3.6,5.76,18.9,79.2,1015.92,0.14,0.2,0,0,0.036583
2021/01/09 03:20:00.000,n,241,2.88,2.16,3.24,18.9,79.6,1016.02,0.15,0.5,0,0,0.033951
2021/01/09 03:21:00.003,n,179,10.08,9,10.8,18.9,79.3,1015.92,0.15,0.2,0,0,0.034866
2021/01/09 03:22:00.000,n,240,1.8,1.44,2.16,18.9,79.6,1015.92,0.16,0.5,0,0,0.033112
2021/01/09 03:23:00.000,n,228,2.16,1.8,2.52,18.9,79.4,1015.92,0.17,0.7,0,0,0.030518
2021/01/09 03:24:00.000,n,178,3.24,2.88,3.6,18.9,79.5,1015.92,0.19,0.9,0,0,0.034866
2021/01/09 03:25:00.012,n,212,4.32,3.6,5.04,18.9,79.6,1015.92,0.24,2.9,0,0,0.029602
2021/01/09 03:26:00.009,n,248,2.52,1.08,3.6,18.9,79.6,1015.92,0.29,3.3,0,0,0.031357
2021/01/09 03:27:00.007,n,196,1.8,1.08,2.88,18.9,79.8,1015.92,0.37,4.4,0,0,0.030518
2021/01/09 03:28:00.000,n,222,3.24,1.8,3.96,18.9,79.7,1015.92,0.46,5.1,0,0,0.027885
2021/01/09 03:29:00.000,n,147,2.52,2.52,2.88,18.9,80,1015.92,0.54,5.2,0,0,0.026131
2021/01/09 03:30:00.000,n,161,9,7.2,9.72,18.9,79.7,1015.92,0.64,6,0,0,0.032234
2021/01/09 03:31:00.000,n,187,6.84,5.4,7.56,18.8,79.8,1015.92,0.74,5.4,0,0,0.027008
2021/01/09 03:32:00.007,n,169,6.84,3.6,7.92,18.8,80,1015.92,0.81,4.8,0,0,0.027885
2021/01/09 03:33:00.000,n,188,5.76,5.04,6.48,18.8,80,1015.92,0.9,5.4,0,0,0.022659
2021/01/09 03:34:00.003,n,173,4.32,3.6,5.04,18.8,80.1,1016.02,0.97,3.9,0,0,0.029602
2021/01/09 03:35:00.010,n,202,3.96,1.08,5.4,18.8,80.3,1016.02,1.07,5.7,0,0,0.026131
2021/01/09 03:36:00.001,n,258,1.8,1.44,2.16,18.8,80.7,1016.12,1.19,5.7,0,0,0.028725
2021/01/09 03:37:00.000,n,273,4.32,3.6,4.68,18.8,80.8,1016.12,1.27,6.4,0,0,0.031357
2021/01/09 03:38:00.000,n,154,1.8,1.44,2.16,18.8,80.7,1016.12,1.34,4.3,0,0,0.027885
2021/01/09 03:39:00.003,n,238,3.24,1.8,4.68,18.8,80.9,1016.12,1.42,4.5,0,0,0.027008
2021/01/09 03:40:00.000,n,281,1.8,1.44,2.52,18.8,81.3,1016.22,1.48,4,0,0,0.027885
2021/01/09 03:41:00.000,n,256,3.24,2.52,3.6,18.8,81.2,1016.22,1.52,2.8,0,0,0.027008
2021/01/09 03:42:00.004,n,252,2.16,1.44,3.24,18.8,81.1,1016.22,1.56,2.3,0,0,0.027885
2021/01/09 03:43:00.011,n,254,5.4,5.04,6.12,18.8,81.2,1016.22,1.61,2.7,0,0,0.029602
2021/01/09 03:44:00.001,n,283,5.04,3.6,6.84,18.8,81.4,1016.22,1.67,3.9,0,0,0.033112
2021/01/09 03:45:00.007,n,318,2.52,1.44,3.6,18.8,81.9,1016.22,1.72,3,0,0,0.027008
2021/01/09 03:46:00.000,n,203,1.08,0.72,1.44,18.8,81.7,1016.22,1.77,2.5,0,0,0.030518
2021/01/09 03:47:00.003,n,234,1.08,0.72,1.44,18.8,81.9,1016.22,1.78,1.2,0,0,0.024376
2021/01/09 03:48:00.000,n,238,2.16,1.8,2.52,18.8,82,1016.22,1.8,0.7,0,0,0.027008
2021/01/09 03:49:00.000,n,214,3.24,2.52,3.96,18.8,81.9,1016.12,1.82,1.2,0,0,0.028725
2021/01/09 03:50:00.006,n,219,1.8,1.08,2.88,18.8,82.1,1016.12,1.83,0.8,0,0,0.027008
2021/01/09 03:51:00.000,n,169,1.8,1.08,2.52,18.8,82.2,1016.12,1.85,1,0,0,0.026131
2021/01/09 03:52:00.002,n,190,6.12,3.24,9.36,18.7,81.9,1016.12,1.87,0.9,0,0,0.027008
2021/01/09 03:53:00.008,n,194,8.64,7.92,9.72,18.7,82.1,1016.12,1.88,0.9,0,0,0.022659
2021/01/09 03:54:00.016,n,217,1.08,0.36,2.16,18.7,82.2,1016.22,1.9,0.9,0,0,0.020943
2021/01/09 03:55:00.000,n,133,0.72,0,1.44,18.7,82.3,1016.22,1.91,0.7,0,0,0.022659
2021/01/09 03:56:00.000,n,273,4.32,3.96,4.68,18.7,82.5,1016.22,1.92,0.4,0,0,0.026131
2021/01/09 03:57:00.002,n,316,1.44,0.72,1.8,18.7,83,1016.22,1.93,0.3,0,0,0.025291
2021/01/09 03:58:00.000,n,267,0.72,0.36,1.08,18.7,82.9,1016.22,1.94,0.8,0,0,0.027008
2021/01/09 03:59:00.000,n,318,2.16,1.44,3.6,18.8,82.9,1016.22,1.94,0.3,0,0,0.032196
2021/01/09 04:00:00.002,n,84,0.72,0.36,1.08,18.8,82.9,1016.22,1.95,0.4,0,0,0.040016
2021/01/09 04:01:00.010,n,288,3.96,3.6,4.68,18.8,82.7,1016.22,1.95,0.1,0,0,0.029602
2021/01/09 04:02:00.000,n,210,1.8,1.44,2.52,18.7,82.5,1016.22,1.95,0.1,0,0,0.03479
2021/01/09 04:03:00.005,n,174,3.6,2.88,4.68,18.7,82.5,1016.22,1.95,0,0,0,0.033073
2021/01/09 04:04:00.000,n,141,2.16,0.72,2.52,18.7,82.4,1016.22,1.95,0,0,0,0.033951
2021/01/09 04:05:00.000,n,231,2.16,1.44,3.96,18.7,82.7,1016.22,1.95,0,0,0,0.037422
2021/01/09 04:06:00.000,n,191,2.52,1.8,2.88,18.7,82.6,1016.22,1.95,0,0,0,0.035706
2021/01/09 04:07:00.000,n,264,2.52,1.8,2.88,18.7,82.9,1016.22,1.95,0,0,0,0.033951
2021/01/09 04:08:00.002,n,287,5.4,4.68,5.76,18.7,82.8,1016.22,1.95,0,0,0,0.033951
2021/01/09 04:09:00.009,n,272,3.6,1.44,5.4,18.7,82.6,1016.22,1.96,0,0,0,0.032196
2021/01/09 04:10:00.000,n,251,3.6,3.6,3.96,18.7,82.6,1016.22,1.96,0,0,0,0.028725
2021/01/09 04:11:00.004,n,221,5.04,4.68,5.76,18.7,82.7,1016.12,1.96,0,0,0,0.030441
2021/01/09 04:12:00.010,n,125,0.36,0.36,1.08,18.6,82.8,1016.12,1.96,0,0,0,0.029602
2021/01/09 04:13:00.000,n,247,3.96,3.24,4.32,18.6,82.8,1016.12,1.96,0,0,0,0.032196
2021/01/09 04:14:00.000,n,195,2.16,1.44,2.88,18.6,82.8,1016.12,1.96,0,0,0,0.033073
2021/01/09 04:15:00.000,n,188,3.24,1.44,4.68,18.6,82.7,1016.12,1.96,0,0,0,0.030441
2021/01/09 04:16:00.001,n,167,3.24,2.88,3.96,18.6,82.7,1016.02,1.96,0,0,0,0.033073
2021/01/09 04:17:00.007,n,156,8.28,5.76,9.72,18.6,82.7,1016.02,1.96,0,0,0,0.033951
2021/01/09 04:18:00.000,n,187,11.88,10.440002,12.6,18.6,82.4,1016.02,1.96,0,0,0,0.032196
2021/01/09 04:19:00.003,n,128,3.24,1.8,3.96,18.6,82.7,1016.02,1.96,0,0,0,0.033073
2021/01/09 04:20:00.010,n,163,7.2,6.48,7.56,18.5,82.5,1016.02,1.96,0.1,0,0,0.030441
2021/01/09 04:21:00.015,n,178,7.92,5.76,11.52,18.5,82.7,1016.02,1.96,0.1,0,0,0.033073
2021/01/09 04:22:00.000,n,156,6.12,5.76,6.48,18.5,82.8,1016.02,1.97,0.4,0,0,0.027847
2021/01/09 04:23:00.000,n,174,4.68,3.96,5.4,18.5,82.7,1016.02,1.97,0.1,0,0,0.031357
2021/01/09 04:24:00.002,n,142,2.88,2.16,3.96,18.5,83,1016.02,1.98,0.1,0,0,0.030441
2021/01/09 04:25:00.000,n,163,6.84,5.04,8.28,18.5,82.9,1015.92,1.98,0.1,0,0,0.029602
2021/01/09 04:26:00.000,n,146,4.32,2.16,7.2,18.5,82.6,1015.92,1.99,0.5,0,0,0.028725
2021/01/09 04:27:00.005,n,182,6.48,5.04,7.56,18.5,82.9,1016.02,2.01,0.8,0,0,0.029602
2021/01/09 04:28:00.012,n,176,5.4,5.04,6.48,18.5,82.9,1016.02,2.01,0.8,0,0,0.027847
2021/01/09 04:29:00.002,n,168,6.48,3.6,8.28,18.5,82.8,1016.02,2.03,0.7,0,0,0.028725
2021/01/09 04:30:00.008,n,199,3.6,1.44,5.04,18.5,82.9,1016.02,2.03,0.4,0,0,0.032234
2021/01/09 04:31:00.000,n,8,1.8,0.72,3.6,18.5,82.9,1016.02,2.03,0,0,0,0.039177
2021/01/09 04:32:00.000,n,214,1.8,1.44,2.16,18.5,83.1,1016.02,2.04,0.4,0,0,0.0383
2021/01/09 04:33:00.000,n,243,2.88,2.52,3.6,18.6,83.3,1016.02,2.04,0.1,0,0,0.035706
2021/01/09 04:34:00.000,n,182,1.08,0.72,1.08,18.6,83.3,1016.02,2.05,0.1,0,0,0.040932
2021/01/09 04:35:00.002,n,254,2.16,1.44,2.16,18.6,83.3,1016.02,2.05,0.2,0,0,0.040092
2021/01/09 04:36:00.008,n,206,3.96,2.88,4.32,18.6,83.4,1016.02,2.05,0.1,0,0,0.041809
2021/01/09 04:37:00.000,n,232,3.24,3.24,3.6,18.7,83.4,1016.02,2.06,0.2,0,0,0.041809
2021/01/09 04:38:00.004,n,230,1.8,1.08,1.8,18.6,83.1,1016.02,2.06,0.4,0,0,0.044441
2021/01/09 04:39:00.012,n,148,2.16,2.16,2.52,18.6,83,1016.02,2.07,0.4,0,0,0.049667
2021/01/09 04:40:00.002,n,249,2.88,2.52,3.24,18.6,83.3,1016.02,2.09,0.9,0,0,0.047035
2021/01/09 04:41:00.000,n,255,2.16,1.44,3.24,18.6,83.5,1016.02,2.09,0.5,0,0,0.060959
2021/01/09 04:42:00.000,n,242,2.52,1.8,3.6,18.6,83.3,1016.02,2.1,0.4,0,0,0.063591
2021/01/09 04:43:00.004,n,188,1.44,0.72,1.8,18.6,83.2,1016.02,2.11,0.7,0,0,0.07576
2021/01/09 04:44:00.000,n,190,5.04,4.32,5.04,18.6,83.2,1016.02,2.12,0.4,0,0,0.0914